This is the latest recevied weather packets stored in our database for station/object YM2KA-13. If no packets are shown the sender has not sent any weather packets the latest 1 day(s).
| Time | Temp. | Humidity | Pressure | Rain* | Wind** | Luminosity | Snow |
|---|---|---|---|---|---|---|---|
| 1777981046 | 11.11° C | 67% | 1012.4 hPa | 0 mm | 1.34 m/s, 293° | - | - |
| 1777980822 | 11.11° C | 66% | 1012.3 hPa | 0 mm | 2.24 m/s, 280° | - | - |
| 1777980224 | 11.11° C | 66% | 1012.3 hPa | 0 mm | 2.24 m/s, 284° | - | - |
| 1777980143 | 11.11° C | 66% | 1012.3 hPa | 0 mm | 0.89 m/s, 281° | - | - |
| 1777979625 | 10.56° C | 67% | 1012.3 hPa | 0 mm | 1.34 m/s, 289° | - | - |
| 1777979239 | 10.56° C | 68% | 1012.3 hPa | 0 mm | 1.34 m/s, 296° | - | - |
| 1777979025 | 10.56° C | 68% | 1012.4 hPa | 0 mm | 2.24 m/s, 256° | - | - |
| 1777978427 | 10.56° C | 68% | 1012.4 hPa | 0 mm | 2.24 m/s, 288° | - | - |
| 1777978346 | 10.56° C | 67% | 1012.4 hPa | 0 mm | 2.68 m/s, 269° | - | - |
| 1777977828 | 11.11° C | 66% | 1012.4 hPa | 0 mm | 2.24 m/s, 252° | - | - |
| 1777977442 | 11.11° C | 66% | 1012.3 hPa | 0 mm | 2.24 m/s, 282° | - | - |
| 1777977228 | 11.11° C | 66% | 1012.3 hPa | 0 mm | 2.24 m/s, 298° | - | - |
| 1777976620 | 10.56° C | 67% | 1012.4 hPa | 0 mm | 4.02 m/s, 294° | - | - |
| 1777976539 | 10.56° C | 68% | 1012.4 hPa | 0 mm | 1.34 m/s, 259° | - | - |
| 1777976021 | 10.56° C | 67% | 1012.5 hPa | 0 mm | 0.45 m/s, 248° | - | - |
| 1777975646 | 10.56° C | 67% | 1012.6 hPa | 0 mm | 2.24 m/s, 311° | - | - |
| 1777975422 | 10.56° C | 67% | 1012.6 hPa | 0 mm | 3.13 m/s, 288° | - | - |
| 1777974823 | 11.11° C | 67% | 1012.6 hPa | 0 mm | 0.89 m/s, 287° | - | - |
| 1777974741 | 11.11° C | 66% | 1012.5 hPa | 0 mm | 0.89 m/s, 261° | - | - |
| 1777974233 | 11.11° C | 66% | 1012.5 hPa | 0 mm | 2.24 m/s, 299° | - | - |
| 1777973848 | 11.11° C | 66% | 1012.6 hPa | 0 mm | 0.89 m/s, 251° | - | - |
| 1777973624 | 11.11° C | 66% | 1012.5 hPa | 0 mm | 0.89 m/s, 280° | - | - |
| 1777973026 | 10.56° C | 67% | 1012.6 hPa | 0 mm | 0.89 m/s, 260° | - | - |
| 1777972944 | 10.56° C | 66% | 1012.6 hPa | 0 mm | 0.45 m/s, 260° | - | - |
| 1777972427 | 10° C | 68% | 1012.8 hPa | 0 mm | 2.24 m/s, 287° | - | - |
* Rain latest hour (hover to see other rain measurements)
** Current wind speed in m/s (hover to see current wind gust speed)